sat.trackr.live / text

‹ back to catalog

STARLINK-34042

NORAD 63838 · 2025-093C

PAYLOAD ACTIVE UNKNOWN

§ Identity

Operator
Country
US
Launch date
2025-05-07
Launch site
AFETR
Launch vehicle
Mass (kg)
RCS (m²)

Purposes: comms

External: N2YO · Heavens-Above · Gunter

§ Orbital elements

Epoch: 2026-05-24T23:26:32.381088Z

Period
94.27 min
Inclination
43.0028°
Eccentricity
0.0001396
Mean motion
15.27593919 rev/d
Perigee alt
482.0 km
Apogee alt
484.0 km
Semi-major
6,861.1 km
B*
9.6789e-4
RAAN
3.2344°
Arg perigee
260.7661°
Mean anomaly
99.3033°
Rev number
5,968

§ Raw data

STARLINK-340421 63838U 25093C   26144.97676367  .00026479  00000+0  96789-3 0  99942 63838  43.0028   3.2344 0001396 260.7661  99.3033 15.27593919 59686

JSON: /api/v1/satellites/63838 · /tle

For live sub-satellite position, see the globe view (requires WebGL).

§ Visibility from observer

Set your observer location to see the next 7 days of passes ≥ 10°. The values pass through the URL so the page stays shareable.

No JS? Fill the form by hand. The geolocation button needs JavaScript.